KD5OH Weather Reports


time (UTC)temp
C
wind
direction
speed
KPH
gust
KPH
rain 1hr
cm
rain 24hr
cm
rain mn
cm
humidity
%
barometer
mb
20260901023128 30 104 1.6 6.4 0.00 0.00 0.00 24 1015.0
20260901021625 31 149 1.6 6.4 0.00 0.00 0.00 23 1014.6
20260901020137 30 112 1.6 4.8 0.00 0.00 0.00 25 1014.6
20260901014648 30 349 0.0 1.6 0.00 0.00 0.00 22 1014.2
20260901013123 31 346 0.0 1.6 0.00 0.00 0.00 21 1014.1
20260901011635 32 341 0.0 1.6 0.00 0.00 0.00 20 1014.1
20260901010131 33 298 0.0 1.6 0.00 0.00 0.00 16 1014.2
20260901004622 35 233 3.2 9.7 0.00 0.00 0.00 13 1013.9
20260901003134 36 212 6.4 16.1 0.00 0.00 0.00 12 1014.0
20260901001630 35 237 8.0 14.5 0.00 0.00 0.00 13 1014.1
20260901000120 35 219 9.7 16.1 0.00 0.00 0.00 13 1014.1
20260831234636 35 242 6.4 14.5 0.00 0.00 0.00 13 1014.0
20260831233128 36 239 11.3 20.9 0.00 0.00 0.00 12 1013.8
20260831231623 36 237 14.5 25.7 0.00 0.00 0.00 12 1013.8
20260831230137 37 182 9.7 20.9 0.00 0.00 0.00 11 1013.9
20260831224628 37 227 6.4 12.9 0.00 0.00 0.00 12 1013.9
20260831223123 37 144 0.0 16.1 0.00 0.00 0.00 12 1014.1
20260831221634 37 203 14.5 20.9 0.00 0.00 0.00 12 1014.5
20260831220130 37 192 11.3 17.7 0.00 0.00 0.00 12 1014.6
20260831214642 37 229 0.0 9.7 0.00 0.00 0.00 12 1014.6
20260831213137 37 176 9.7 22.5 0.00 0.00 0.00 12 1014.9
20260831211628 36 248 4.8 14.5 0.00 0.00 0.00 15 1015.1
20260831210140 37 212 1.6 12.9 0.00 0.00 0.00 16 1015.5
20260831204635 36 357 6.4 12.9 0.00 0.00 0.00 18 1015.9
20260831203128 35 221 1.6 17.7 0.00 0.00 0.00 18 1016.2
20260831200134 35 270 3.2 8.0 0.00 0.00 0.00 20 1016.7
20260831194629 35 180 4.8 9.7 0.00 0.00 0.00 20 1017.0
20260831193121 35 321 1.6 9.7 0.00 0.00 0.00 21 1017.1
20260831191633 35 216 6.4 12.9 0.00 0.00 0.00 21 1017.3
20260831190129 34 141 4.8 12.9 0.00 0.00 0.00 21 1017.7
20260831184621 34 298 1.6 6.4 0.00 0.00 0.00 23 1017.9
20260831183137 34 259 1.6 6.4 0.00 0.00 0.00 24 1018.0
20260831181648 33 107 1.6 6.4 0.00 0.00 0.00 23 1018.3
20260831180139 33 250 0.0 9.7 0.00 0.00 0.00 24 1018.4
20260831174635 32 274 0.0 9.7 0.00 0.00 0.00 25 1018.6
20260831173127 32 217 0.0 8.0 0.00 0.00 0.00 26 1018.7
20260831171622 32 94 0.0 4.8 0.00 0.00 0.00 26 1018.8
20260831170134 31 333 3.2 8.0 0.00 0.00 0.00 27 1018.9
20260831164621 31 300 1.6 11.3 0.00 0.00 0.00 27 1019.0
20260831163136 31 354 3.2 9.7 0.00 0.00 0.00 27 1019.0
20260831161627 30 296 1.6 12.9 0.00 0.00 0.00 30 1018.8
20260831160144 30 315 3.2 9.7 0.00 0.00 0.00 29 1018.8
20260831154629 29 350 1.6 4.8 0.00 0.00 0.00 31 1018.7
20260831153139 28 2 0.0 9.7 0.00 0.00 0.00 32 1018.8
20260831151634 28 298 1.6 9.7 0.00 0.00 0.00 34 1018.9
20260831150144 27 313 1.6 8.0 0.00 0.00 0.00 33 1018.8
20260831144634 27 303 1.6 9.7 0.00 0.00 0.00 36 1018.7
20260831143126 26 348 1.6 4.8 0.00 0.00 0.00 38 1018.4
20260831141639 25 339 1.6 6.4 0.00 0.00 0.00 38 1018.2
20260831140132 24 26 3.2 6.4 0.00 0.00 0.00 39 1018.0
20260831134645 22 333 0.0 6.4 0.00 0.00 0.00 45 1017.9
20260831133136 21 314 1.6 4.8 0.00 0.00 0.00 47 1017.6
20260831131653 21 355 0.0 0.0 0.00 0.00 0.00 53 1017.2
20260831130123 22 239 0.0 1.6 0.00 0.00 0.00 47 1017.0
20260831124639 23 161 0.0 0.0 0.00 0.00 0.00 44 1016.9
20260831123132 23 170 0.0 1.6 0.00 0.00 0.00 44 1016.7
20260831121649 23 135 0.0 0.0 0.00 0.00 0.00 43 1016.5
20260831120120 23 167 0.0 0.0 0.00 0.00 0.00 43 1016.5
20260831114631 25 161 0.0 6.4 0.00 0.00 0.00 40 1016.6
20260831113148 23 199 0.0 1.6 0.00 0.00 0.00 43 1016.6
20260831111639 22 292 0.0 1.6 0.00 0.00 0.00 47 1016.7
20260831110156 23 265 0.0 0.0 0.00 0.00 0.00 44 1016.6
20260831104628 23 225 0.0 0.0 0.00 0.00 0.00 43 1016.6
20260831103141 23 145 0.0 1.6 0.00 0.00 0.00 43 1016.5
20260831101635 22 123 0.0 0.0 0.00 0.00 0.00 41 1016.7
20260831100129 22 123 0.0 0.0 0.00 0.00 0.00 39 1016.5
20260831094625 23 256 0.0 1.6 0.00 0.00 0.00 37 1016.7
20260831093158 25 88 0.0 9.7 0.00 0.00 0.00 33 1016.7
20260831091629 23 133 0.0 1.6 0.00 0.00 0.00 36 1016.7
20260831090146 24 338 0.0 1.6 0.00 0.00 0.00 34 1016.6
20260831084636 24 83 0.0 0.0 0.00 0.00 0.00 35 1016.6
20260831083133 25 119 0.0 1.6 0.00 0.00 0.00 34 1016.5
20260831081623 25 61 0.0 4.8 0.00 0.00 0.00 31 1016.4
20260831080121 25 69 0.0 1.6 0.00 0.00 0.00 34 1016.5
20260831074632 26 67 0.0 1.6 0.00 0.00 0.00 31 1016.7
20260831073124 26 251 0.0 6.4 0.00 0.00 0.00 29 1016.6
20260831071621 28 154 0.0 6.4 0.00 0.00 0.00 24 1016.6
20260831070133 28 135 3.2 6.4 0.00 0.00 0.00 25 1016.4
20260831064650 28 153 4.8 9.7 0.00 0.00 0.00 26 1016.3
20260831063142 28 177 1.6 6.4 0.00 0.00 0.00 26 1016.3
20260831061655 30 204 1.6 16.1 0.00 0.00 0.00 24 1016.2
20260831060152 29 135 6.4 11.3 0.00 0.00 0.00 24 1016.1
20260831054622 29 152 3.2 9.7 0.00 0.00 0.00 24 1016.1
20260831053200 29 137 3.2 8.0 0.00 0.00 0.00 25 1016.1
20260831051629 28 178 0.0 3.2 0.00 0.00 0.00 26 1016.2
20260831050141 29 131 0.0 1.6 0.00 0.00 0.00 27 1016.4
20260831044636 29 81 0.0 0.0 0.00 0.00 0.00 26 1016.4
20260831043129 30 210 0.0 1.6 0.00 0.00 0.00 23 1016.3
20260831041624 31 99 0.0 1.6 0.00 0.00 0.00 22 1016.2
20260831040136 30 8 0.0 3.2 0.00 0.00 0.00 25 1016.2
20260831034634 31 145 0.0 6.4 0.00 0.00 0.00 22 1016.2
20260831033125 31 61 0.0 6.4 0.00 0.00 0.00 26 1016.1
20260831031637 30 130 0.0 3.2 0.00 0.00 0.00 28 1015.8
20260831030132 30 94 0.0 3.2 0.00 0.00 0.00 29 1015.3
20260831024624 30 81 0.0 0.0 0.00 0.00 0.00 33 1015.1